Flag for U.S.A. Weather past 2 weeks in Vancouver, Washington, U.S.A.

Now
75 °F

Passing clouds.


Feels Like: 77 °F
Forecast: 55 / 76 °F
Wind: 7 mph from Southwest

Location: Vancouver - Pearson Airpark

Current Time: Aug 21, 2014 at 4:05:43 PM

Latest Report: Aug 21, 2014 at 2:53 PM


Visibility: 10 mi

Pressure: 29.99 "Hg

Humidity: 25%

Dew point: 37 °F

Location of VancouverLocation

Historic Weather in Vancouver — Graph

°F

Vancouver temperature yesterday

Maximum temperature yesterday: 77 °F (at 4:53 PM)
Minimum temperature yesterday: 60 °F (at 2:53 AM)
Average temperature yesterday: 67 °F

Past Weeks' High & Low Weather Summary

 TemperatureHumidityPressure
High97 °F (Aug 11, 4:53 PM)93% (Aug 12, 11:53 PM)30.14 "Hg (Aug 12, 11:53 PM)
Low51 °F (Aug 21, 6:53 AM)25% (Aug 21, 2:53 PM)29.77 "Hg (Aug 11, 6:53 PM)
Average71 °F60%29.98 "Hg
* Reported Aug 6 2:53 PM — Aug 21 2:53 PM, Vancouver, Weather by CustomWeather, © 2014

Note: Actual official high and low records may vary slightly from our data, if they occured in-between our weather recording intervals... More about our weather records

Advertising

Vancouver weather history for previous 24 hours

 ConditionsComfort  
Time TempWeatherWind HumidityBarometerVisibility
2:53 PM
Aug 21
75 °FPassing clouds.7 mph25%29.99 "Hg10 mi
1:53 PM73 °FSunny.5 mph37%30.01 "Hg10 mi
12:53 PM71 °FSunny.5 mph44%30.03 "Hg10 mi
11:53 AM67 °FPartly sunny.6 mph53%30.04 "Hg10 mi
10:53 AM65 °FSunny.6 mph59%30.05 "Hg10 mi
9:53 AM62 °FSunny.3 mph62%30.06 "Hg10 mi
8:53 AM59 °FSunny.3 mph69%30.06 "Hg10 mi
7:53 AM57 °FSunny.No wind81%30.06 "Hg10 mi
6:53 AM51 °FClear.No wind89%30.05 "Hg10 mi
5:53 AM52 °FClear.No wind83%30.04 "Hg10 mi
4:53 AM56 °FClear.No wind77%30.04 "Hg10 mi
3:53 AM57 °FClear.5 mph78%30.04 "Hg10 mi
2:53 AM58 °FClear.No wind75%30.04 "Hg10 mi
1:53 AM59 °FClear.No wind72%30.03 "Hg10 mi
12:53 AM60 °FClear.3 mph69%30.02 "Hg10 mi
11:53 PM
Aug 20
61 °FClear.5 mph67%30.01 "Hg10 mi
10:53 PM63 °FClear.3 mph63%30.00 "Hg10 mi
9:53 PM65 °FClear.5 mph59%30.00 "Hg10 mi
8:53 PM67 °FSunny.6 mph53%29.98 "Hg10 mi
7:53 PM70 °FSunny.7 mph47%29.96 "Hg10 mi
6:53 PM73 °FSunny.9 mph43%29.96 "Hg10 mi
5:53 PM77 °FSunny.6 mph37%29.95 "Hg10 mi
4:53 PM77 °FSunny.8 mph36%29.95 "Hg10 mi
Weather by CustomWeather, © 2014

See weather overviewHow to use our weather pages